sat.trackr.live / text

‹ back to catalog

STARLINK-35112

NORAD 65520 · 2025-200A

PAYLOAD ACTIVE UNKNOWN

§ Identity

Operator
Country
US
Launch date
2025-09-06
Launch site
AFWTR
Launch vehicle
Mass (kg)
RCS (m²)

Purposes: comms

External: N2YO · Heavens-Above · Gunter

§ Orbital elements

Epoch: 2026-09-20T22:34:02.665632Z

Period
93.90 min
Inclination
97.2854°
Eccentricity
0.0006679
Mean motion
15.33490601 rev/d
Perigee alt
460.8 km
Apogee alt
470.0 km
Semi-major
6,843.5 km
B*
4.8474e-4
RAAN
330.3869°
Arg perigee
261.6203°
Mean anomaly
98.4283°
Rev number
5,870

§ Raw data

STARLINK-351121 65520U 25200A   26263.94030863  .00015639  00000+0  48474-3 0  99922 65520  97.2854 330.3869 0006679 261.6203  98.4283 15.33490601 58701

JSON: /api/v1/satellites/65520 · /tle

For live sub-satellite position, see the globe view (requires WebGL).

§ Visibility from observer

Set your observer location to see the next 7 days of passes ≥ 10°. The values pass through the URL so the page stays shareable.

No JS? Fill the form by hand. The geolocation button needs JavaScript.